Regional Weather Roundup
Issued by NWS

Home | Current Version | Previous Version | Graphics & Text | Print | Product List | Glossary On
Versions: 1 2 3 4 5 6 7 8 9 10 11 12 13 14 15 16 17 18 19 20 21 22 23 24 25 26 27 28 29 30 31 32 33 34 35 36 37 38 39 40 41 42 43 44 45 46 47 48 49 50
000
ASUS43 KTOP 010759
RWRKS

WEATHER ROUNDUP FOR KANSAS
NATIONAL WEATHER SERVICE GOODLAND KS
300 AM CDT FRI AUG 01 2014

NOTE:  "FAIR" INDICATES FEW OR NO CLOUDS BELOW 12,000 FEET WITH NO
SIGNIFICANT WEATHER AND/OR OBSTRUCTIONS TO VISIBILITY.

KSZ001>006-013>018-027>032-041>047-010900-
NORTHWEST KANSAS

CITY           SKY/WX    TMP DP  RH WIND       PRES   REMARKS
GOODLAND       CLEAR     62  52  69 W10       30.17S
HAYS           CLEAR     64  55  72 SW13      30.07F
HILL CITY      CLEAR     64  52  64 W3        30.08R
RUSSELL        CLEAR     65  58  78 S12       30.05S
$$

KSZ061>065-074>080-084>089-010900-
SOUTHWEST KANSAS

CITY           SKY/WX    TMP DP  RH WIND       PRES   REMARKS
DODGE CITY     CLEAR     65  56  72 SW8       30.13F
ELKHART          N/A     65  52  63 SW5         N/A
GARDEN CITY    CLEAR     60  57  89 W6        30.14S
GREAT BEND       N/A     64  57  77 SW7       30.08S
LIBERAL        PTCLDY    63  55  77 SW8       30.16F
$$

KSZ066>073-081>083-090>101-010900-
SOUTHEAST KANSAS

CITY           SKY/WX    TMP DP  RH WIND       PRES   REMARKS
CHANUTE        CLEAR     67  64  90 SW7       30.06F
COFFEYVILLE    CLEAR     64  63  96 CALM      30.07R
HUTCHINSON     CLEAR     63  55  75 S3        30.08S
NEWTON         CLEAR     64  57  77 SW8       30.11S
PARSONS        CLEAR     62  60  93 CALM      30.08S FOG
WICHITA INTL   PTCLDY    64  61  90 SW6       30.08S
WICHITA JABRA  CLEAR     68  63  84 SW10      30.08S
WINFIELD       CLEAR     64  64 100 SW3       30.09F
$$

KSZ007>012-019>026-033>040-048>060-102>105-010900-
NORTHEAST KANSAS

CITY           SKY/WX    TMP DP  RH WIND       PRES   REMARKS
CONCORDIA      CLEAR     68  55  63 SW9       30.02F
EMPORIA        CLEAR     61  58  90 SW8       30.06S
LAWRENCE       MOCLDY    65  60  84 E3        30.05S
MANHATTAN      PTCLDY    67  59  75 SW8       30.04S
OLATHE IND     MOCLDY    65  60  84 SE5       30.07S
OLATHE EXE     PTCLDY    65  59  81 CALM      30.06R
SALINA         CLEAR     63  54  72 S7        30.05F
TOPEKA BILLARD PTCLDY    67  60  78 CALM      30.05S
TOPEKA FORBES  PTCLDY    63  57  81 CALM      30.05S
$$



USA.gov is the U.S. government's official web portal to all federal, state and local government web resources and services.